星链-34780 (STARLINK-34780)

导读

STARLINK-34780是美国SpaceX公司星链(Starlink)星座的卫星,于2025年7月31日发射。星链项目旨在构建全球低轨卫星互联网星座,为全球缺乏传统通信基础设施的偏远地区提供高速低延迟宽带服务。该卫星属于量产型星链卫星,运行于低地球轨道,搭载Ku/Ka波段通信载荷,配备霍尔推进器,具备自主避撞能力,寿命末期可主动离轨坠入大气层销毁,对环境影响可控,是星链星座全球覆盖网络建设的组成部分。

基本信息
目录编号:
65074
目录名称:
STARLINK-34780
国际标识:
2025-165U
轨道中心:
EARTH
卫星名称:
星链-34780
卫星全名:
星链-34780 (STARLINK-34780)
卫星状态:
在轨 (已飞行408 天)
发射日期:
2025-07-31 UTC
国别 :
美国 (US)
星等 :
--
该卫星已列入 空间交会检测服务 Space Conjunction Data Service (SCDS) ,当前飞行风险评估等级: 无高风险
轨道信息
数据来源 国际轨道数据
星历时间: 2026-09-12T12:00:02+0800
7小时前
查看轨道信息
半长轴: 6894.165km
偏心率: 0.0001457
轨道倾角: 97.285°
近地点辐角 80.480°
升交点赤经 326.524°
平近点角 131.013°
近地点: 515.023km
远地点: 517.033km
周期: 94.947分钟
每日圈数: 15.166322
详细信息
固有亮度:
5
最大亮度:
2.5
卫星平台:
Starlink V1.0
覆盖范围:
全球
运营商:
太空探索技术公司
运营商所在国:
美国
制造商(研发单位):
太空探索技术公司
制造商所在国:
美国
使用方式:
暂无
卫星简介
Starlink 计划是 SpaceX 推出的全球卫星互联网项目,通过发射低轨道卫星,为全球尤其是偏远地区提供高速、低延迟的互联网服务。自 2019 年起,Starlink 已部署数千颗卫星,旨在缩小全球数字鸿沟,推动互联网普及。该项目还为军事、航空等行业提供通信支持,带来广泛经济效益。
2D轨道图
3D轨道图
轨道高度分析图
轨道倾角分析图
轨道综合分析图
查看轨道综合分析图
交会数据列表
事件ID 空间交会对象 最接近时刻(TCA) 交会距离 交会风险概率(CRP) 交会风险指数(CRI) 操作
CDM_260914-071006-121606-507421
2026-09-14T
07:10:21+0000
1.414 km
极远距离
8.109664E-6 低风险 0.53
CDM_260914-091306-507406-806921
2026-09-14T
09:13:30+0000
1.432 km
极远距离
5.198689E-6 低风险 0.49
CDM_260914-122805-841306-507421
2026-09-14T
12:28:20+0000
2.227 km
极远距离
1.849452E-6 低风险 0.4
CDM_260914-133206-337706-507421
2026-09-14T
13:32:50+0000
2.373 km
极远距离
1.544485E-6 低风险 0.39
CDM_260914-151705-320106-507421
2026-09-14T
15:17:20+0000
2.405 km
极远距离
4.258894E-7 极低风险 0.28
与全量物体交会距离演化趋势
与全量物体交会风险概率演化趋势